| time (UTC) | temp C | wind direction | speed KPH | gust KPH | rain 1hr cm | rain 24hr cm | rain mn cm | humidity % | barometer mb |
| 20260504220200 | 26 | 228 | 3.2 | 3.2 | 0.00 | 0.00 | 0.00 | 30 | 1011.5 |
| 20260504215656 | 26 | 214 | 0.0 | 3.2 | 0.00 | 0.00 | 0.00 | 31 | 1011.5 |
| 20260504215154 | 26 | 197 | 3.2 | 3.2 | 0.00 | 0.00 | 0.00 | 31 | 1011.5 |
| 20260504214649 | 26 | 217 | 6.4 | 8.0 | 0.00 | 0.00 | 0.00 | 30 | 1011.5 |
| 20260504214146 | 26 | 190 | 3.2 | 8.0 | 0.00 | 0.00 | 0.00 | 30 | 1011.9 |
| 20260504213643 | 26 | 197 | 8.0 | 12.9 | 0.00 | 0.00 | 0.00 | 30 | 1011.5 |
| 20260504213139 | 26 | 204 | 6.4 | 8.0 | 0.00 | 0.00 | 0.00 | 30 | 1011.5 |
| 20260504212636 | 26 | 223 | 9.7 | 12.9 | 0.00 | 0.00 | 0.00 | 30 | 1011.5 |
| 20260504212133 | 26 | 197 | 4.8 | 8.0 | 0.00 | 0.00 | 0.00 | 30 | 1011.5 |
| 20260504211630 | 26 | 186 | 12.9 | 16.1 | 0.00 | 0.00 | 0.00 | 30 | 1011.5 |
| 20260504211126 | 26 | 216 | 3.2 | 3.2 | 0.00 | 0.00 | 0.00 | 30 | 1011.5 |
| 20260504210624 | 26 | 216 | 12.9 | 16.1 | 0.00 | 0.00 | 0.00 | 29 | 1011.9 |
| 20260504210120 | 26 | 208 | 4.8 | 8.0 | 0.00 | 0.00 | 0.00 | 29 | 1011.9 |
| 20260504205618 | 26 | 237 | 8.0 | 12.9 | 0.00 | 0.00 | 0.00 | 29 | 1011.9 |
| 20260504205115 | 26 | 225 | 9.7 | 12.9 | 0.00 | 0.00 | 0.00 | 31 | 1012.2 |
| 20260504204614 | 26 | 202 | 3.2 | 3.2 | 0.00 | 0.00 | 0.00 | 31 | 1012.2 |
| 20260504204112 | 26 | 208 | 0.0 | 0.0 | 0.00 | 0.00 | 0.00 | 30 | 1012.6 |
| 20260504203611 | 26 | 228 | 0.0 | 0.0 | 0.00 | 0.00 | 0.00 | 30 | 1012.6 |
| 20260504203108 | 26 | 240 | 3.2 | 3.2 | 0.00 | 0.00 | 0.00 | 31 | 1012.6 |
| 20260504202603 | 26 | 191 | 12.9 | 16.1 | 0.00 | 0.00 | 0.00 | 29 | 1012.6 |
| 20260504202100 | 26 | 131 | 0.0 | 0.0 | 0.00 | 0.00 | 0.00 | 27 | 1012.6 |
| 20260504201556 | 26 | 207 | 8.0 | 12.9 | 0.00 | 0.00 | 0.00 | 27 | 1012.9 |
| 20260504201055 | 26 | 281 | 4.8 | 8.0 | 0.00 | 0.00 | 0.00 | 28 | 1012.9 |
| 20260504200550 | 26 | 243 | 3.2 | 3.2 | 0.00 | 0.00 | 0.00 | 29 | 1012.6 |
| 20260504200048 | 26 | 197 | 8.0 | 12.9 | 0.00 | 0.00 | 0.00 | 29 | 1012.9 |
| 20260504195544 | 26 | 248 | 6.4 | 8.0 | 0.00 | 0.00 | 0.00 | 29 | 1012.6 |
| 20260504195040 | 26 | 254 | 6.4 | 8.0 | 0.00 | 0.00 | 0.00 | 30 | 1012.9 |
| 20260504194537 | 26 | 222 | 9.7 | 12.9 | 0.00 | 0.00 | 0.00 | 29 | 1012.9 |
| 20260504194032 | 26 | 162 | 1.6 | 3.2 | 0.00 | 0.00 | 0.00 | 30 | 1012.9 |
| 20260504193529 | 26 | 256 | 9.7 | 12.9 | 0.00 | 0.00 | 0.00 | 29 | 1013.2 |
| 20260504193028 | 26 | 236 | 4.8 | 8.0 | 0.00 | 0.00 | 0.00 | 31 | 1013.2 |
| 20260504192526 | 26 | 287 | 19.3 | 24.1 | 0.00 | 0.00 | 0.00 | 30 | 1013.2 |
| 20260504192024 | 25 | 274 | 1.6 | 3.2 | 0.00 | 0.00 | 0.00 | 30 | 1013.2 |
| 20260504191521 | 25 | 100 | 4.8 | 8.0 | 0.00 | 0.00 | 0.00 | 29 | 1013.2 |
| 20260504191017 | 25 | 198 | 8.0 | 12.9 | 0.00 | 0.00 | 0.00 | 30 | 1013.6 |
| 20260504190513 | 25 | 214 | 0.0 | 0.0 | 0.00 | 0.00 | 0.00 | 30 | 1013.6 |
| 20260504190010 | 25 | 197 | 0.0 | 3.2 | 0.00 | 0.00 | 0.00 | 31 | 1013.6 |
| 20260504185507 | 25 | 221 | 4.8 | 8.0 | 0.00 | 0.00 | 0.00 | 31 | 1013.6 |
| 20260504185003 | 25 | 240 | 12.9 | 16.1 | 0.00 | 0.00 | 0.00 | 31 | 1013.6 |
| 20260504184459 | 25 | 220 | 12.9 | 20.9 | 0.00 | 0.00 | 0.00 | 31 | 1013.6 |
| 20260504183954 | 25 | 304 | 4.8 | 8.0 | 0.00 | 0.00 | 0.00 | 30 | 1013.6 |
| 20260504183452 | 25 | 196 | 6.4 | 8.0 | 0.00 | 0.00 | 0.00 | 30 | 1013.9 |
| 20260504182950 | 25 | 177 | 3.2 | 8.0 | 0.00 | 0.00 | 0.00 | 30 | 1013.9 |
| 20260504182446 | 25 | 200 | 12.9 | 16.1 | 0.00 | 0.00 | 0.00 | 29 | 1013.9 |
| 20260504181944 | 25 | 218 | 4.8 | 8.0 | 0.00 | 0.00 | 0.00 | 30 | 1013.9 |
| 20260504181441 | 25 | 258 | 9.7 | 12.9 | 0.00 | 0.00 | 0.00 | 31 | 1014.3 |
| 20260504180939 | 25 | 210 | 12.9 | 16.1 | 0.00 | 0.00 | 0.00 | 32 | 1014.3 |
| 20260504180438 | 25 | 187 | 0.0 | 0.0 | 0.00 | 0.00 | 0.00 | 32 | 1014.3 |
| 20260504175936 | 24 | 185 | 6.4 | 8.0 | 0.00 | 0.00 | 0.00 | 31 | 1014.3 |
| 20260504175432 | 24 | 209 | 9.7 | 12.9 | 0.00 | 0.00 | 0.00 | 32 | 1014.3 |
| 20260504174930 | 24 | 209 | 4.8 | 8.0 | 0.00 | 0.00 | 0.00 | 34 | 1014.6 |
| 20260504174427 | 24 | 208 | 0.0 | 0.0 | 0.00 | 0.00 | 0.00 | 32 | 1014.3 |
| 20260504173925 | 24 | 235 | 1.6 | 3.2 | 0.00 | 0.00 | 0.00 | 32 | 1014.3 |
| 20260504173421 | 24 | 206 | 6.4 | 12.9 | 0.00 | 0.00 | 0.00 | 33 | 1014.3 |
| 20260504172919 | 24 | 195 | 3.2 | 8.0 | 0.00 | 0.00 | 0.00 | 32 | 1014.6 |
| 20260504172414 | 23 | 194 | 1.6 | 3.2 | 0.00 | 0.00 | 0.00 | 32 | 1014.3 |
| 20260504171911 | 23 | 103 | 1.6 | 3.2 | 0.00 | 0.00 | 0.00 | 32 | 1014.6 |
| 20260504171408 | 23 | 217 | 8.0 | 12.9 | 0.00 | 0.00 | 0.00 | 33 | 1014.6 |
| 20260504170905 | 23 | 201 | 3.2 | 3.2 | 0.00 | 0.00 | 0.00 | 31 | 1014.6 |
| 20260504170401 | 23 | 217 | 3.2 | 3.2 | 0.00 | 0.00 | 0.00 | 33 | 1014.6 |
| 20260504160320 | 23 | 213 | 11.3 | 16.1 | 0.00 | 0.00 | 0.00 | 32 | 1015.3 |
| 20260504150745 | 22 | 236 | 0.0 | 0.0 | 0.00 | 0.00 | 0.00 | 37 | 1015.3 |
| 20260504150242 | 22 | 235 | 0.0 | 0.0 | 0.00 | 0.00 | 0.00 | 40 | 1015.3 |
| 20260504141211 | 20 | 229 | 0.0 | 0.0 | 0.00 | 0.00 | 0.00 | 53 | 1015.3 |
| 20260504140708 | 21 | 192 | 0.0 | 0.0 | 0.00 | 0.00 | 0.00 | 53 | 1015.3 |
| 20260504140203 | 21 | 191 | 0.0 | 0.0 | 0.00 | 0.00 | 0.00 | 53 | 1015.3 |
| 20260504130632 | 16 | 143 | 0.0 | 0.0 | 0.00 | 0.00 | 0.00 | 61 | 1015.3 |
| 20260504130129 | 16 | 139 | 0.0 | 0.0 | 0.00 | 0.00 | 0.00 | 62 | 1015.3 |
| 20260504110520 | 10 | 198 | 0.0 | 0.0 | 0.00 | 0.00 | 0.00 | 73 | 1014.6 |
| 20260504100442 | 11 | 198 | 0.0 | 0.0 | 0.00 | 0.00 | 0.00 | 71 | 1014.6 |
| 20260504081841 | 11 | 200 | 0.0 | 0.0 | 0.00 | 0.00 | 0.00 | 67 | 1014.9 |
| 20260504081338 | 11 | 199 | 0.0 | 0.0 | 0.00 | 0.00 | 0.00 | 67 | 1014.9 |
| 20260504080833 | 11 | 184 | 0.0 | 0.0 | 0.00 | 0.00 | 0.00 | 67 | 1014.9 |
| 20260504080331 | 11 | 181 | 0.0 | 0.0 | 0.00 | 0.00 | 0.00 | 67 | 1014.9 |
| 20260504070258 | 12 | 214 | 0.0 | 0.0 | 0.00 | 0.00 | 0.00 | 66 | 1015.3 |
| 20260504060218 | 12 | 217 | 0.0 | 0.0 | 0.00 | 0.00 | 0.00 | 65 | 1015.6 |
| 20260504050646 | 13 | 202 | 0.0 | 0.0 | 0.00 | 0.00 | 0.00 | 64 | 1015.9 |
| 20260504050143 | 13 | 199 | 0.0 | 0.0 | 0.00 | 0.00 | 0.00 | 64 | 1015.9 |
| 20260504045640 | 13 | 198 | 0.0 | 0.0 | 0.00 | 0.00 | 0.00 | 64 | 1015.9 |
| 20260504045140 | 13 | 199 | 0.0 | 0.0 | 0.00 | 0.00 | 0.00 | 64 | 1015.9 |
| 20260504044638 | 13 | 203 | 0.0 | 0.0 | 0.00 | 0.00 | 0.00 | 63 | 1015.9 |
| 20260504044135 | 13 | 201 | 0.0 | 0.0 | 0.00 | 0.00 | 0.00 | 63 | 1015.9 |
| 20260504043632 | 13 | 200 | 0.0 | 0.0 | 0.00 | 0.00 | 0.00 | 63 | 1016.3 |
| 20260504043129 | 13 | 200 | 0.0 | 0.0 | 0.00 | 0.00 | 0.00 | 63 | 1016.3 |
| 20260504042626 | 13 | 200 | 0.0 | 0.0 | 0.00 | 0.00 | 0.00 | 63 | 1016.3 |
| 20260504042123 | 13 | 202 | 0.0 | 0.0 | 0.00 | 0.00 | 0.00 | 63 | 1016.3 |
| 20260504041619 | 13 | 200 | 0.0 | 0.0 | 0.00 | 0.00 | 0.00 | 63 | 1015.9 |
| 20260504041115 | 13 | 200 | 0.0 | 0.0 | 0.00 | 0.00 | 0.00 | 63 | 1016.3 |
| 20260504040613 | 13 | 200 | 0.0 | 0.0 | 0.00 | 0.00 | 0.00 | 63 | 1016.3 |
| 20260504040109 | 13 | 200 | 0.0 | 0.0 | 0.00 | 0.00 | 0.00 | 63 | 1016.3 |
| 20260504035606 | 14 | 201 | 0.0 | 0.0 | 0.00 | 0.00 | 0.00 | 63 | 1016.3 |
| 20260504035102 | 14 | 200 | 0.0 | 0.0 | 0.00 | 0.00 | 0.00 | 63 | 1016.3 |
| 20260504034600 | 14 | 200 | 0.0 | 0.0 | 0.00 | 0.00 | 0.00 | 63 | 1016.3 |
| 20260504034057 | 14 | 201 | 0.0 | 0.0 | 0.00 | 0.00 | 0.00 | 63 | 1016.3 |
| 20260504033555 | 14 | 201 | 0.0 | 0.0 | 0.00 | 0.00 | 0.00 | 63 | 1016.3 |
| 20260504033052 | 15 | 201 | 0.0 | 0.0 | 0.00 | 0.00 | 0.00 | 63 | 1016.6 |
| 20260504032549 | 15 | 202 | 0.0 | 0.0 | 0.00 | 0.00 | 0.00 | 63 | 1016.6 |
| 20260504032046 | 15 | 202 | 0.0 | 0.0 | 0.00 | 0.00 | 0.00 | 62 | 1016.6 |
| 20260504031542 | 15 | 202 | 0.0 | 0.0 | 0.00 | 0.00 | 0.00 | 62 | 1016.6 |
| 20260504031038 | 15 | 188 | 0.0 | 0.0 | 0.00 | 0.00 | 0.00 | 62 | 1016.6 |
| 20260504030536 | 15 | 188 | 0.0 | 0.0 | 0.00 | 0.00 | 0.00 | 62 | 1016.6 |
| 20260504030032 | 15 | 188 | 0.0 | 0.0 | 0.00 | 0.00 | 0.00 | 62 | 1016.6 |
| 20260504025530 | 15 | 186 | 0.0 | 0.0 | 0.00 | 0.00 | 0.00 | 62 | 1016.6 |
| 20260504025026 | 15 | 186 | 0.0 | 0.0 | 0.00 | 0.00 | 0.00 | 62 | 1016.6 |
| 20260504024523 | 15 | 186 | 0.0 | 0.0 | 0.00 | 0.00 | 0.00 | 62 | 1016.6 |
| 20260504024020 | 15 | 180 | 0.0 | 0.0 | 0.00 | 0.00 | 0.00 | 62 | 1016.6 |
| 20260504023517 | 16 | 180 | 0.0 | 0.0 | 0.00 | 0.00 | 0.00 | 62 | 1016.6 |
| 20260504023012 | 16 | 180 | 0.0 | 0.0 | 0.00 | 0.00 | 0.00 | 62 | 1016.3 |
| 20260504022508 | 16 | 181 | 0.0 | 0.0 | 0.00 | 0.00 | 0.00 | 62 | 1016.3 |
| 20260504022005 | 16 | 183 | 0.0 | 0.0 | 0.00 | 0.00 | 0.00 | 61 | 1016.3 |
| 20260504021503 | 16 | 183 | 0.0 | 0.0 | 0.00 | 0.00 | 0.00 | 61 | 1016.3 |
| 20260504021000 | 16 | 179 | 0.0 | 0.0 | 0.00 | 0.00 | 0.00 | 61 | 1016.3 |
| 20260504020456 | 16 | 188 | 0.0 | 0.0 | 0.00 | 0.00 | 0.00 | 60 | 1015.9 |
| 20260504015953 | 17 | 188 | 0.0 | 0.0 | 0.00 | 0.00 | 0.00 | 60 | 1015.9 |
| 20260504015449 | 17 | 187 | 0.0 | 0.0 | 0.00 | 0.00 | 0.00 | 60 | 1015.9 |
| 20260504014945 | 17 | 187 | 0.0 | 0.0 | 0.00 | 0.00 | 0.00 | 59 | 1015.9 |
| 20260504014441 | 17 | 183 | 0.0 | 0.0 | 0.00 | 0.00 | 0.00 | 59 | 1015.9 |
| 20260504013938 | 17 | 178 | 0.0 | 0.0 | 0.00 | 0.00 | 0.00 | 59 | 1015.6 |
| 20260504013437 | 18 | 211 | 0.0 | 0.0 | 0.00 | 0.00 | 0.00 | 58 | 1015.6 |
| 20260504012932 | 18 | 176 | 0.0 | 0.0 | 0.00 | 0.00 | 0.00 | 57 | 1015.6 |
| 20260504012431 | 18 | 176 | 0.0 | 0.0 | 0.00 | 0.00 | 0.00 | 56 | 1015.6 |
| 20260504011928 | 18 | 208 | 0.0 | 0.0 | 0.00 | 0.00 | 0.00 | 55 | 1015.6 |
| 20260504011425 | 19 | 208 | 0.0 | 0.0 | 0.00 | 0.00 | 0.00 | 54 | 1015.9 |
| 20260504010920 | 20 | 208 | 0.0 | 0.0 | 0.00 | 0.00 | 0.00 | 55 | 1015.6 |
| 20260504010417 | 20 | 208 | 0.0 | 0.0 | 0.00 | 0.00 | 0.00 | 54 | 1015.6 |
| 20260504005913 | 20 | 208 | 0.0 | 0.0 | 0.00 | 0.00 | 0.00 | 54 | 1015.6 |
| 20260504005409 | 20 | 209 | 0.0 | 0.0 | 0.00 | 0.00 | 0.00 | 52 | 1015.3 |
| 20260504004908 | 21 | 208 | 0.0 | 0.0 | 0.00 | 0.00 | 0.00 | 49 | 1015.6 |
| 20260504004405 | 21 | 208 | 0.0 | 0.0 | 0.00 | 0.00 | 0.00 | 48 | 1015.3 |
| 20260504003901 | 21 | 208 | 0.0 | 0.0 | 0.00 | 0.00 | 0.00 | 47 | 1015.3 |
| 20260504003358 | 22 | 208 | 0.0 | 0.0 | 0.00 | 0.00 | 0.00 | 45 | 1015.3 |
| 20260504002855 | 22 | 209 | 0.0 | 0.0 | 0.00 | 0.00 | 0.00 | 43 | 1015.6 |
| 20260504002351 | 22 | 209 | 0.0 | 0.0 | 0.00 | 0.00 | 0.00 | 41 | 1015.3 |
| 20260504001849 | 23 | 184 | 0.0 | 0.0 | 0.00 | 0.00 | 0.00 | 40 | 1015.3 |
| 20260504001346 | 23 | 207 | 0.0 | 0.0 | 0.00 | 0.00 | 0.00 | 39 | 1015.3 |
| 20260504000843 | 23 | 215 | 0.0 | 0.0 | 0.00 | 0.00 | 0.00 | 37 | 1015.6 |
| 20260504000340 | 23 | 205 | 0.0 | 0.0 | 0.00 | 0.00 | 0.00 | 35 | 1015.3 |
| 20260503235838 | 24 | 211 | 0.0 | 0.0 | 0.00 | 0.00 | 0.00 | 33 | 1015.6 |
| 20260503235335 | 25 | 235 | 0.0 | 0.0 | 0.00 | 0.00 | 0.00 | 30 | 1015.6 |
| 20260503234832 | 25 | 212 | 0.0 | 0.0 | 0.00 | 0.00 | 0.00 | 31 | 1015.3 |
| 20260503234330 | 25 | 220 | 0.0 | 0.0 | 0.00 | 0.00 | 0.00 | 28 | 1015.6 |
| 20260503233828 | 26 | 207 | 0.0 | 0.0 | 0.00 | 0.00 | 0.00 | 29 | 1015.6 |
| 20260503233323 | 26 | 254 | 0.0 | 0.0 | 0.00 | 0.00 | 0.00 | 27 | 1015.6 |
| 20260503232820 | 26 | 261 | 0.0 | 0.0 | 0.00 | 0.00 | 0.00 | 26 | 1015.6 |
| 20260503232318 | 26 | 252 | 0.0 | 0.0 | 0.00 | 0.00 | 0.00 | 25 | 1015.6 |
| 20260503231815 | 26 | 124 | 0.0 | 0.0 | 0.00 | 0.00 | 0.00 | 24 | 1015.6 |
| 20260503231312 | 26 | 217 | 0.0 | 0.0 | 0.00 | 0.00 | 0.00 | 24 | 1015.6 |
| 20260503230808 | 26 | 256 | 0.0 | 0.0 | 0.00 | 0.00 | 0.00 | 24 | 1015.6 |
| 20260503230305 | 26 | 217 | 0.0 | 0.0 | 0.00 | 0.00 | 0.00 | 23 | 1015.3 |
| 20260503225803 | 26 | 236 | 0.0 | 0.0 | 0.00 | 0.00 | 0.00 | 23 | 1015.6 |
| 20260503225258 | 26 | 304 | 0.0 | 0.0 | 0.00 | 0.00 | 0.00 | 23 | 1015.6 |
| 20260503224755 | 26 | 199 | 0.0 | 0.0 | 0.00 | 0.00 | 0.00 | 24 | 1015.9 |
| 20260503224252 | 26 | 74 | 0.0 | 0.0 | 0.00 | 0.00 | 0.00 | 24 | 1015.9 |
| 20260503223750 | 26 | 206 | 0.0 | 0.0 | 0.00 | 0.00 | 0.00 | 23 | 1015.6 |
| 20260503223248 | 26 | 201 | 0.0 | 0.0 | 0.00 | 0.00 | 0.00 | 23 | 1015.6 |
| 20260503222743 | 26 | 88 | 0.0 | 0.0 | 0.00 | 0.00 | 0.00 | 24 | 1015.6 |
| 20260503222241 | 26 | 197 | 0.0 | 0.0 | 0.00 | 0.00 | 0.00 | 23 | 1015.9 |
| 20260503221740 | 26 | 199 | 0.0 | 0.0 | 0.00 | 0.00 | 0.00 | 24 | 1015.9 |
| 20260503221237 | 26 | 269 | 0.0 | 0.0 | 0.00 | 0.00 | 0.00 | 24 | 1015.9 |
| 20260503220733 | 26 | 206 | 0.0 | 0.0 | 0.00 | 0.00 | 0.00 | 22 | 1015.9 |
| 20260503220231 | 26 | 218 | 0.0 | 0.0 | 0.00 | 0.00 | 0.00 | 23 | 1015.9 |